Location: Geremba
(10.4250°N, 67.2394°W)
Time: 14:42:30
(UTC+00:00)

Cosmos 2218 Rocket - Pass Details

Date: 21 August 2024
Orbit: 956 x 1005 km, 82.9° (Epoch: 06 September)

Event Time Altitude Azimuth Distance (km) Brightness Sun altitude
Rises 08:42:07 0° 23° (NNE) 3,711 7.6 -24.0°
Reaches altitude 10° 08:45:28 10° 40° (NE) 2,755 7.1 -23.2°
Maximum altitude 08:49:47 19° 83° (E) 2,149 6.7 -22.2°
Drops below altitude 10° 08:54:04 10° 127° (SE) 2,735 6.8 -21.2°
Sets 08:57:21 0° 144° (SE) 3,673 7.3 -20.4°
